Weather History for Council Bluffs, IA

Change the Weather History Date:

Thursday, July 11, 2013

  Actual Average Record
Temperature  
Mean Temperature 73 °F -  
Max Temperature 84 °F 83 °F 93 °F (2008)
Min Temperature 62 °F 66 °F 57 °F (1999)
Cooling Degree Days 8    
Growing Degree Days 23 (Base 50)    
Moisture  
Dew Point 61 °F    
Average Humidity 65    
Maximum Humidity 88    
Minimum Humidity 45    
Precipitation  
Precipitation 0.00 in - - ()
Sea Level Pressure  
Sea Level Pressure 30.06 in    
Wind  
Wind Speed 8 mph (SE)    
Max Wind Speed 15 mph    
Max Gust Speed 21 mph    
Visibility 10 miles    
Events      
Averages and records for this station are not official NWS values.
T = Trace of Precipitation, MM = Missing Value Source: NWS Daily Summary

Daily Weather History Graph

Daily Weather History Graph

Search for Another Location

Airport:

Trip Planner

Search our weather history database for the weather conditions in past years. The results will help you decide how hot, cold, wet, or windy it might be!

Date:

Astronomy

Jul. 11, 2013 Rise Set
Actual Time 6:00 AM CDT 8:56 PM CDT
Civil Twilight 5:27 AM CDT 9:29 PM CDT
Nautical Twilight 4:45 AM CDT 10:11 PM CDT
Astronomical Twilight 3:56 AM CDT 10:59 PM CDT
Moon 9:22 AM CDT (7/11) 10:34 PM CDT (7/11)
Length of Visible Light 16h 02m
Length of Day
14h 56m
Waxing Crescent, 11% of the Moon is Illuminated
Jul 11
Waxing Crescent
Jul 15
First Quarter
Jul 22
Full
Jul 29
Last Quarter
Aug 6
New

Hourly Weather History & Observations

Time (CDT) Temp. Heat Index Dew Point Humidity Pressure Visibility Wind Dir Wind Speed Gust Speed Precip Events Conditions
12:15 AM 68.0 °F - 60.8 °F 78% 30.07 in 10.0 mi East 6.9 mph - N/A   Unknown
12:35 AM 71.6 °F - 59.0 °F 64% 30.07 in 10.0 mi East 5.8 mph - N/A   Unknown
12:55 AM 69.8 °F - 59.0 °F 68% 30.08 in 10.0 mi ESE 4.6 mph - N/A   Clear
1:15 AM 68.0 °F - 60.8 °F 78% 30.07 in 10.0 mi ESE 4.6 mph - N/A   Clear
1:35 AM 68.0 °F - 60.8 °F 78% 30.08 in 10.0 mi SE 3.5 mph - N/A   Clear
1:55 AM 66.2 °F - 62.6 °F 88% 30.08 in 10.0 mi SE 3.5 mph - N/A   Clear
2:15 AM 66.2 °F - 62.6 °F 88% 30.08 in 10.0 mi Calm Calm - N/A   Clear
2:35 AM 68.0 °F - 60.8 °F 78% 30.08 in 10.0 mi ESE 3.5 mph - N/A   Clear
2:55 AM 68.0 °F - 59.0 °F 73% 30.08 in 10.0 mi ESE 5.8 mph - N/A   Clear
3:15 AM 68.0 °F - 59.0 °F 73% 30.08 in 10.0 mi ESE 4.6 mph - N/A   Clear
3:35 AM 68.0 °F - 57.2 °F 68% 30.08 in 10.0 mi ESE 5.8 mph - N/A   Clear
3:55 AM 68.0 °F - 57.2 °F 68% 30.08 in 10.0 mi East 6.9 mph - N/A   Clear
4:15 AM 66.2 °F - 57.2 °F 73% 30.08 in 10.0 mi ESE 4.6 mph - N/A   Clear
4:35 AM 66.2 °F - 57.2 °F 73% 30.07 in 10.0 mi ESE 5.8 mph - N/A   Clear
4:55 AM 64.4 °F - 57.2 °F 77% 30.07 in 10.0 mi ESE 6.9 mph - N/A   Unknown
5:15 AM 64.4 °F - 57.2 °F 77% 30.08 in 10.0 mi ESE 5.8 mph - N/A   Clear
5:35 AM 62.6 °F - 57.2 °F 82% 30.08 in 10.0 mi ESE 5.8 mph - N/A   Clear
5:55 AM 62.6 °F - 57.2 °F 82% 30.09 in 10.0 mi ESE 5.8 mph - N/A   Clear
6:15 AM 62.6 °F - 57.2 °F 82% 30.09 in 10.0 mi ESE 5.8 mph - N/A   Clear
6:35 AM 64.4 °F - 57.2 °F 77% 30.09 in 10.0 mi ESE 8.1 mph - N/A   Clear
6:55 AM 62.6 °F - 57.2 °F 82% 30.09 in 10.0 mi SE 5.8 mph - N/A   Clear
7:15 AM 64.4 °F - 57.2 °F 77% 30.10 in 10.0 mi ESE 5.8 mph - N/A   Clear
7:35 AM 66.2 °F - 57.2 °F 73% 30.09 in 10.0 mi East 9.2 mph - N/A   Clear
7:55 AM 68.0 °F - 59.0 °F 73% 30.09 in 10.0 mi SE 9.2 mph - N/A   Clear
8:15 AM 68.0 °F - 59.0 °F 73% 30.10 in 10.0 mi SE 6.9 mph - N/A   Clear
8:35 AM 69.8 °F - 60.8 °F 73% 30.10 in 10.0 mi SSE 8.1 mph - N/A   Clear
8:55 AM 71.6 °F - 60.8 °F 69% 30.11 in 10.0 mi SSE 8.1 mph - N/A   Clear
9:15 AM 71.6 °F - 62.6 °F 73% 30.11 in 10.0 mi SE 8.1 mph - N/A   Clear
9:35 AM 73.4 °F - 62.6 °F 69% 30.11 in 10.0 mi SE 10.4 mph 16.1 mph N/A   Clear
9:55 AM 75.2 °F - 60.8 °F 61% 30.11 in 10.0 mi SSE 9.2 mph 16.1 mph N/A   Clear
10:15 AM 75.2 °F - 60.8 °F 61% 30.11 in 10.0 mi South 12.7 mph - N/A   Clear
10:35 AM 77.0 °F - 60.8 °F 57% 30.11 in 10.0 mi SSE 13.8 mph - N/A   Clear
10:55 AM 78.8 °F - 60.8 °F 54% 30.12 in 10.0 mi South 11.5 mph - N/A   Clear
11:15 AM 78.8 °F - 60.8 °F 54% 30.12 in 10.0 mi SSE 13.8 mph - N/A   Clear
11:35 AM 78.8 °F - 60.8 °F 54% 30.11 in 10.0 mi SSE 11.5 mph 17.3 mph N/A   Clear
11:55 AM 78.8 °F - 60.8 °F 54% 30.11 in 10.0 mi SSE 11.5 mph 18.4 mph N/A   Clear
12:15 PM 80.6 °F 81.5 °F 60.8 °F 51% 30.10 in 10.0 mi SSE 10.4 mph - N/A   Clear
12:35 PM 80.6 °F 81.5 °F 60.8 °F 51% 30.10 in 10.0 mi SSE 10.4 mph 17.3 mph N/A   Clear
12:55 PM 80.6 °F 81.5 °F 60.8 °F 51% 30.09 in 10.0 mi South 10.4 mph 17.3 mph N/A   Clear
1:15 PM 80.6 °F 81.8 °F 62.6 °F 54% 30.08 in 10.0 mi South 11.5 mph - N/A   Clear
1:35 PM 82.4 °F 82.9 °F 60.8 °F 48% 30.07 in 10.0 mi SE 11.5 mph 18.4 mph N/A   Clear
1:55 PM 82.4 °F 82.9 °F 60.8 °F 48% 30.06 in 10.0 mi SE 13.8 mph - N/A   Clear
2:15 PM 82.4 °F 82.9 °F 60.8 °F 48% 30.06 in 10.0 mi SE 11.5 mph 19.6 mph N/A   Clear
2:35 PM 82.4 °F 82.9 °F 60.8 °F 48% 30.06 in 10.0 mi SE 12.7 mph 18.4 mph N/A   Clear
2:55 PM 84.2 °F 84.4 °F 60.8 °F 45% 30.05 in 10.0 mi South 15.0 mph - N/A   Clear
3:15 PM 82.4 °F 82.9 °F 60.8 °F 48% 30.05 in 10.0 mi SE 12.7 mph 19.6 mph N/A   Clear
3:35 PM 84.2 °F 85.0 °F 62.6 °F 48% 30.05 in 10.0 mi SSE 12.7 mph - N/A   Clear
3:55 PM 84.2 °F 85.0 °F 62.6 °F 48% 30.04 in 10.0 mi SSE 12.7 mph - N/A   Clear
4:15 PM 84.2 °F 84.4 °F 60.8 °F 45% 30.04 in 10.0 mi SE 12.7 mph - N/A   Clear
4:35 PM 84.2 °F 85.0 °F 62.6 °F 48% 30.04 in 10.0 mi SSE 15.0 mph - N/A   Clear
4:55 PM 84.2 °F 84.4 °F 60.8 °F 45% 30.03 in 10.0 mi SE 12.7 mph - N/A   Clear
5:15 PM 84.2 °F 85.0 °F 62.6 °F 48% 30.02 in 10.0 mi SSE 11.5 mph - N/A   Clear
5:35 PM 84.2 °F 84.4 °F 60.8 °F 45% 30.02 in 10.0 mi SE 10.4 mph 17.3 mph N/A   Clear
5:55 PM 84.2 °F 85.0 °F 62.6 °F 48% 30.01 in 10.0 mi SE 12.7 mph - N/A   Clear
6:15 PM 82.4 °F 83.4 °F 62.6 °F 51% 30.00 in 10.0 mi SE 13.8 mph - N/A   Clear
6:35 PM 82.4 °F 83.4 °F 62.6 °F 51% 30.00 in 10.0 mi SSE 13.8 mph 20.7 mph N/A   Clear
6:55 PM 82.4 °F 83.4 °F 62.6 °F 51% 30.00 in 10.0 mi SSE 10.4 mph 16.1 mph N/A   Clear
7:15 PM 82.4 °F 83.9 °F 64.4 °F 54% 29.99 in 10.0 mi SSE 11.5 mph - N/A   Clear
7:35 PM 80.6 °F 82.3 °F 64.4 °F 58% 29.99 in 10.0 mi SSE 9.2 mph - N/A   Clear
7:55 PM 80.6 °F 82.3 °F 64.4 °F 58% 29.99 in 10.0 mi SE 6.9 mph - N/A   Clear
8:15 PM 78.8 °F - 64.4 °F 61% 29.99 in 10.0 mi SSE 8.1 mph - N/A   Clear
8:35 PM 77.0 °F - 64.4 °F 65% 29.98 in 10.0 mi SE 6.9 mph - N/A   Clear
8:55 PM 75.2 °F - 64.4 °F 69% 29.99 in 10.0 mi SE 5.8 mph - N/A   Clear
9:15 PM 73.4 °F - 64.4 °F 73% 29.99 in 10.0 mi SE 5.8 mph - N/A   Clear
9:35 PM 71.6 °F - 64.4 °F 78% 29.99 in 10.0 mi SE 6.9 mph - N/A   Clear
9:55 PM 71.6 °F - 64.4 °F 78% 30.00 in 10.0 mi SE 5.8 mph - N/A   Clear
10:15 PM 71.6 °F - 64.4 °F 78% 30.00 in 10.0 mi SE 8.1 mph - N/A   Clear
10:35 PM 71.6 °F - 64.4 °F 78% 30.00 in 10.0 mi SE 8.1 mph - N/A   Unknown
10:55 PM 69.8 °F - 62.6 °F 78% 30.01 in 10.0 mi SE 9.2 mph - N/A   Clear
11:15 PM 69.8 °F - 62.6 °F 78% 30.01 in 10.0 mi SSE 8.1 mph - N/A   Clear
11:35 PM 69.8 °F - 62.6 °F 78% 30.02 in 10.0 mi SSE 8.1 mph - N/A   Unknown
11:55 PM 69.8 °F - 62.6 °F 78% 30.02 in 10.0 mi SSE 10.4 mph - N/A   Unknown